Home > Weather > Kurunegala > Past weeks

Flag for Sri Lanka Weather for the Past 2 Weeks in Kurunegala, Sri Lanka

Now
75 °F

Clear.


Feels Like: 75 °F
Forecast: 73 / 92 °F
Wind: 3 mph from Northeast

Location: Katunayake

Current Time: Feb 14, 2016 at 7:51:06 AM

Latest Report: Feb 14, 2016 at 5:40 AM


Visibility: 5 mi

Pressure: 29.83 "Hg

Humidity: 89%

Dew point: 72 °F

Location of KurunegalaLocation

Historic Weather in Kurunegala — Graph

°F

Kurunegala Temperature Yesterday

Maximum temperature yesterday: 88 °F (at 12:40 PM)
Minimum temperature yesterday: 73 °F (at 5:40 AM)
Average temperature yesterday: 81 °F

High & Low Weather Summary for the Past Weeks

 TemperatureHumidityPressure
High95 °F (Feb 3, 2:40 PM)94% (Feb 11, 1:40 AM)29.95 "Hg (Feb 11, 1:40 AM)
Low70 °F (Jan 30, 5:40 AM)25% (Feb 3, 2:40 PM)29.74 "Hg (Feb 12, 2:40 PM)
Average82 °F69%29.86 "Hg
* Reported Jan 30 5:40 AM — Feb 14 5:40 AM, Kurunegala, Weather by CustomWeather, © 2016

Note: Actual official high and low records may vary slightly from our data, if they occured in-between our weather recording intervals... More about our weather records

Advertising

Kurunegala Weather History for the Previous 24 Hours

 ConditionsComfort  
Time TempWeatherWind HumidityBarometerVisibility
5:40 AM
Sun, Feb 14
75 °FClear.3 mph89%29.83 "Hg5 mi
4:40 AM75 °FPassing clouds.3 mph89%29.80 "Hg4 mi
2:40 AM75 °FClear.3 mph89%29.83 "Hg6 mi
1:40 AM79 °FPassing clouds.1 mph79%29.83 "Hg6 mi
12:40 AM79 °FPassing clouds.3 mph79%29.86 "Hg6 mi
11:40 PM
Sat, Feb 13
79 °FClear.6 mph79%29.86 "Hg10 mi
10:40 PM81 °FPassing clouds.5 mph79%29.86 "HgN/A
9:40 PM81 °FPassing clouds.3 mph79%29.89 "HgN/A
8:40 PM82 °FPassing clouds.3 mph70%29.86 "HgN/A
7:40 PM82 °FPassing clouds.2 mph70%29.86 "HgN/A
6:40 PM82 °FPassing clouds.5 mph70%29.80 "Hg6 mi
5:40 PM84 °FPassing clouds.6 mph66%29.80 "HgN/A
4:40 PM86 °FPassing clouds.7 mph59%29.77 "HgN/A
3:40 PM88 °FPassing clouds.8 mph55%29.77 "HgN/A
2:40 PM86 °FPassing clouds.9 mph62%29.80 "HgN/A
1:40 PM86 °FPassing clouds.9 mph62%29.83 "HgN/A
12:40 PM88 °FScattered clouds.8 mph59%29.86 "HgN/A
11:40 AM86 °FScattered clouds.8 mph62%29.89 "HgN/A
10:40 AM84 °FScattered clouds.6 mph70%29.92 "Hg5 mi
9:40 AM84 °FPartly sunny.3 mph66%29.92 "Hg5 mi
8:40 AM79 °FPartly sunny.6 mph79%29.92 "Hg4 mi
Weather by CustomWeather, © 2016

See weather overviewHow to use our weather pages